CALSPHERE 1

Satellite information

Favourite Embed

Satellite Type and Status

PAYLOADIN ORBIT

Key statistics

Satellite CALSPHERE 1 at a glance.

Uptime

22130

Days in orbit

Revolutions

≈ 13.8

Per day

Orbit

SSO

Sun Synchronous Orbit

Inclination

90.2

Latest

Satellite identification and parameters

Extended collection of information and parameters for CALSPHERE 1.

Object identification

Identified? True

Debris? False

Object name: CALSPHERE 1

International designator: 1964-063C

Object number (NORAD): 900

Object ID (CCSDS): 900

Country: UNITED STATES OF AMERICA (US)

Current information (Y/N): Y

RCS size: SMALL

Orbital parameters

Period: 104.649 minutes

Inclination: 90.2165 deg

SMA: 7356.136 km

Apoapsis: 998.772 km

Periapsis: 957.231 km

RAAN: 62.4954 deg

Eccentricy: 0.0028235

Argument of periapsis: 75.733 deg

Mean anomaly: 9.5465 deg

Mean motion: 13.76030611 rev/day

Mean motion (dot): 0.00000861 rev/day2

B* drag term: 0.00087498 1/REarth

Two-line elements (TLE)

Creation date: May 9, 2025, 2:46 a.m.

Reference frame: TEME

Reference center: EARTH

Epoch: May 8, 2025, 7:20 p.m. UTC

TLE line 0: 0 CALSPHERE 1

TLE line 1: 1 00900U 64063C 25128.80555616 .00000861 00000-0 87498-3 0 9996

TLE line 2: 2 00900 90.2165 62.4954 0028235 75.7330 9.5465 13.76030611 15800

Live tracking on map

Real-time ground track for satellite CALSPHERE 1.

In-orbit conjunctions

A list of the most updated potential collisions computed for object CALSPHERE 1.

Target Orbit TCA Probability of collision Miss distance Type
COSMOS 1333 LEO 2025-03-23 15:08:24 0.0001354822 890.0 (m) PAYLOAD
COSMOS 1275 DEB LEO 2025-03-14 08:28:51 0.0005129544 251.0 (m) DEBRIS
COSMOS 970 DEB LEO 2025-03-01 05:40:25 0.0001876619 886.0 (m) DEBRIS
COSMOS 1275 DEB LEO 2025-01-31 05:54:17 0.0001309519 998.0 (m) DEBRIS
SL-8 DEB LEO 2024-12-16 09:15:16 0.0005285736 224.0 (m) DEBRIS

Associated space launch

The Transit-O series of satellites that closely followed the design of Transit 5C-1 were also called “Oscars” (Oscar is the phonetic alphabet for “O”, i. e., operational). They were also called NNS (Navy Navigation Satellite) or shortened NavSat.

CALSPHERE 1 was lifted into orbit during the mission ‘Thor DM-21 Ablestar | Transit-O 1’, on board a Thor DM-21 Ablestar space rocket.

The launch took place on Oct. 6, 1964, 5:04 p.m. from Space Launch Complex 2W.

For more information about the launch, click the button.

Launch to space Thor DM-21 Ablestar | Transit-O 1
Thor DM-21 Ablestar | Transit-O 1

Agency: N/A

Status: Launch Successful

Launch date: Oct. 6, 1964, 5:04 p.m. UTC

Rocket: Thor DM-21 Ablestar

Launch pad: Space Launch Complex 2W

Location: Vandenberg SFB, CA, USA

...

Latest news about this satellite

There are no fresh news available about this satellite. Check back as we update our databases every day.


Newsletter sign-up

Weekly statistics, charts and insights to help you stay on top of the space industry.